M I D A S
Marine Information and Data Acquisition System
Tripno 227 of the Zeeleeuw from 2002-03-21 08:06:56 to 2002-03-21 14:39:55
Back to CruiseResearch ActivitiesStationsMapUnderway DataData graphs

EquipmentUnitsComments
TimeDGPSUTC
LatitudeDGPSDM.mWGS84
LongitudeDGPSDM.mWGS84
SpeedMeteo Stationm/sRelative wind speed
DirectionMeteo StationdegRelative wind direction
TemperatureMeteo Stationdeg CelciusAir temperature
PressureMeteo StationPaAtmospheric pressure
HumidityMeteo Station%Relative humidity
Missing or incorrect values are displayed as -999
Metereological data collected by the RV Zeeleeuw from 2002-03-21 08:06:56 to 2002-03-21 14:39:55
Time Latitude Longitude Speed Direction Temperature Pressure Humidity
2002-03-21 09:08 51°14.027 2°53.425 17.4 230 10.4 101780 90
2002-03-21 09:09 51°13.924 2°53.147 18.3 229 10.4 101790 91
2002-03-21 09:10 51°13.819 2°52.867 18 231 10.4 101780 91
2002-03-21 09:11 51°13.701 2°52.555 18.5 229 10.4 101790 91
2002-03-21 09:12 51°13.584 2°52.244 18.2 227 10.4 101770 91
2002-03-21 09:13 51°13.465 2°51.944 15.9 222 10.3 101780 91
2002-03-21 09:14 51°13.345 2°51.638 18.8 231 10.3 101780 91
2002-03-21 09:15 51°13.225 2°51.331 16.4 227 10.3 101790 91
2002-03-21 09:16 51°13.104 2°51.023 17.3 228 10.2 101790 91
2002-03-21 09:17 51°12.982 2°50.709 16.5 228 10.2 101790 92
2002-03-21 09:18 51°12.86 2°50.4 16.9 227 10.2 101780 92
2002-03-21 09:19 51°12.741 2°50.09 15.3 228 10.2 101790 92
2002-03-21 09:20 51°12.622 2°49.785 15.4 228 10.2 101800 92
2002-03-21 09:21 51°12.497 2°49.468 16.2 229 10.2 101790 92
2002-03-21 09:22 51°12.376 2°49.155 15.9 232 10.2 101770 92
2002-03-21 09:23 51°12.273 2°48.828 17.3 229 10.3 101770 92
2002-03-21 09:24 51°12.167 2°48.508 17.9 229 10.3 101790 92
2002-03-21 09:25 51°12.058 2°48.175 17 227 10.3 101780 92
2002-03-21 09:26 51°11.953 2°47.853 17.2 232 10.3 101800 92
2002-03-21 09:27 51°11.847 2°47.525 18.7 229 10.3 101790 92
2002-03-21 09:28 51°11.739 2°47.191 16.8 227 10.3 101800 92
2002-03-21 09:29 51°11.635 2°46.867 17.5 228 10.3 101810 92
2002-03-21 09:30 51°11.535 2°46.526 16 233 10.3 101800 92
2002-03-21 09:31 51°11.454 2°46.177 17.1 234 10.3 101800 92
2002-03-21 09:32 51°11.367 2°45.831 15.1 234 10.3 101800 92
2002-03-21 09:33 51°11.282 2°45.483 15.4 231 10.3 101810 92
2002-03-21 09:34 51°11.196 2°45.135 16.4 234 10.3 101790 92
2002-03-21 09:35 51°11.122 2°44.783 18.3 239 10.3 101800 92
2002-03-21 09:36 51°11.097 2°44.412 15.9 241 10.3 101790 92
2002-03-21 09:37 51°11.093 2°44.039 16.6 244 10.3 101780 92
2002-03-21 09:38 51°11.091 2°43.666 17 244 10.3 101780 92
2002-03-21 09:39 51°11.089 2°43.299 16.7 246 10.3 101800 92
2002-03-21 09:40 51°11.087 2°42.921 15.4 244 10.3 101790 92
2002-03-21 09:41 51°11.092 2°42.55 16.9 243 10.2 101780 92
2002-03-21 09:42 51°11.096 2°42.183 16.7 245 10.2 101790 92
2002-03-21 09:43 51°11.118 2°41.971 11.2 274 10.2 101790 92
2002-03-21 09:44 51°11.127 2°41.936 10.4 295 10.2 101790 92
2002-03-21 09:45 51°11.127 2°41.93 5.5 291 10.2 101790 92
2002-03-21 09:46 51°11.135 2°41.922 3 4 10.1 101800 92
2002-03-21 09:47 51°11.15 2°41.908 7.8 325 10 101790 92
2002-03-21 09:48 51°11.169 2°41.892 2.8 315 10 101800 92
2002-03-21 09:49 51°11.189 2°41.884 2.1 316 10 101790 92
2002-03-21 09:50 51°11.213 2°41.881 5.4 340 10 101790 92
2002-03-21 09:51 51°11.234 2°41.884 8.1 3 10 101800 92
2002-03-21 09:52 51°11.256 2°41.897 6.7 9 10 101790 92
2002-03-21 09:53 51°11.274 2°41.91 7.7 5 10 101790 92
2002-03-21 09:54 51°11.294 2°41.961 7 83 10 101800 92
2002-03-21 09:55 51°11.21 2°42 11.8 200 10 101800 92
2002-03-21 09:56 51°11.136 2°41.791 12.6 217 10 101790 93
2002-03-21 09:57 51°10.997 2°41.633 13.2 199 10 101760 93
2002-03-21 09:58 51°10.801 2°41.497 13.4 206 10 101760 93
2002-03-21 09:59 51°10.589 2°41.368 14.3 205 10 101760 93
2002-03-21 10:00 51°10.377 2°41.295 14.1 196 10 101760 93
2002-03-21 10:01 51°10.158 2°41.2 12.6 198 10 101760 93
2002-03-21 10:02 51°9.966 2°41.062 12.5 219 10 101770 93
2002-03-21 10:03 51°9.924 2°40.947 9.1 258 10.1 101800 93
2002-03-21 10:04 51°9.925 2°40.928 9.9 287 10.1 101800 93
2002-03-21 10:05 51°9.953 2°40.888 7.3 304 10.1 101800 93
2002-03-21 10:06 51°10.014 2°40.859 1.3 355 10.1 101800 93
2002-03-21 10:07 51°10.08 2°40.873 7.3 360 10.1 101810 93
2002-03-21 10:08 51°10.129 2°40.929 5.9 32 10.1 101810 93
2002-03-21 10:09 51°10.156 2°41.008 5.9 61 10.2 101820 93
2002-03-21 10:10 51°10.161 2°41.101 6.2 92 10.2 101830 93
2002-03-21 10:11 51°10.141 2°41.174 7.3 108 10.2 101820 93
2002-03-21 10:12 51°10.114 2°41.218 6.9 130 10.3 101820 93
2002-03-21 10:13 51°10.083 2°41.243 7.7 140 10.3 101820 93
2002-03-21 10:14 51°10.05 2°41.255 7.3 147 10.3 101820 93
2002-03-21 10:15 51°10.018 2°41.252 8.8 171 10.3 101820 93
2002-03-21 10:16 51°9.988 2°41.229 9.1 199 10.3 101820 93
2002-03-21 10:17 51°9.964 2°41.186 10 215 10.2 101810 93
2002-03-21 10:18 51°9.942 2°41.133 10.4 213 10.3 101810 93
2002-03-21 10:19 51°9.915 2°41.084 10 202 10.3 101810 93
2002-03-21 10:20 51°9.885 2°41.037 9.7 202 10.3 101810 93
2002-03-21 10:21 51°9.858 2°40.986 10 221 10.3 101810 93
2002-03-21 10:22 51°9.848 2°40.919 10 241 10.3 101830 93
2002-03-21 10:23 51°9.845 2°40.85 8.7 238 10.3 101830 93
2002-03-21 10:24 51°9.838 2°40.775 10.2 233 10.3 101830 93
2002-03-21 10:25 51°9.83 2°40.701 9.1 231 10.3 101830 93
2002-03-21 10:26 51°9.82 2°40.626 8.6 226 10.3 101830 93
2002-03-21 10:27 51°9.803 2°40.554 10.4 221 10.3 101830 93
2002-03-21 10:28 51°9.785 2°40.482 9.1 221 10.3 101830 93
2002-03-21 10:29 51°9.767 2°40.412 8.4 221 10.3 101830 93
2002-03-21 10:30 51°9.751 2°40.349 8.1 227 10.3 101830 93
2002-03-21 10:31 51°9.742 2°40.287 9.8 242 10.3 101840 92
2002-03-21 10:32 51°9.741 2°40.228 9 245 10.3 101840 92
2002-03-21 10:33 51°9.742 2°40.179 8.3 244 10.3 101830 92
2002-03-21 10:34 51°9.744 2°40.126 8.3 244 10.3 101830 92
2002-03-21 10:35 51°9.744 2°40.068 10.2 241 10.3 101840 92
2002-03-21 10:36 51°9.741 2°40.009 9.2 235 10.3 101830 92
2002-03-21 10:37 51°9.733 2°39.95 9 316 10.2 101840 92
2002-03-21 10:38 51°9.719 2°39.893 9.2 224 10.2 101840 92
2002-03-21 10:39 51°9.701 2°39.837 9.6 216 10.2 101830 92
2002-03-21 10:40 51°9.681 2°39.783 9 218 10.2 101830 92
2002-03-21 10:41 51°9.662 2°39.729 9.2 221 10.2 101830 92
2002-03-21 10:42 51°9.642 2°39.675 9.4 214 10.2 101830 92
2002-03-21 10:43 51°9.624 2°39.625 8.6 213 10.2 101840 92
2002-03-21 10:44 51°9.604 2°39.576 10 214 10.2 101830 92
2002-03-21 10:45 51°9.585 2°39.527 8.6 221 10.2 101830 92
2002-03-21 10:46 51°9.566 2°39.476 10.3 220 10.2 101840 92
2002-03-21 10:47 51°9.551 2°39.427 8.4 228 10.2 101840 92
2002-03-21 10:48 51°9.544 2°39.382 9.6 246 10.1 101850 92
2002-03-21 10:49 51°9.543 2°39.337 8.6 261 10.2 101840 92
2002-03-21 10:50 51°9.549 2°39.299 9.2 275 10.2 101830 92
2002-03-21 10:51 51°9.556 2°39.276 9.4 288 10.2 101830 92
2002-03-21 10:52 51°9.563 2°39.259 8.8 297 10.2 101830 92
2002-03-21 10:53 51°9.568 2°39.248 8.9 296 10.2 101840 92
2002-03-21 10:54 51°9.572 2°39.242 4.7 328 10.1 101840 92
2002-03-21 10:55 51°9.576 2°39.237 3.3 323 10.1 101840 92
2002-03-21 10:56 51°9.579 2°39.231 3 336 10.1 101830 92
2002-03-21 10:57 51°9.582 2°39.226 2.4 315 10.1 101840 92
2002-03-21 10:58 51°9.584 2°39.219 3.3 321 10.1 101840 92
2002-03-21 10:59 51°9.588 2°39.213 4.6 305 10.1 101830 92
2002-03-21 11:00 51°9.59 2°39.206 3.7 322 10 101830 92
2002-03-21 11:01 51°9.592 2°39.199 3.1 317 10 101840 92
2002-03-21 11:02 51°9.594 2°39.192 2.8 338 10 101830 92
2002-03-21 11:03 51°9.597 2°39.187 3.8 322 10 101840 92
2002-03-21 11:04 51°9.599 2°39.181 2.3 328 10 101840 92
2002-03-21 11:05 51°9.601 2°39.175 2.9 327 10 101840 92
2002-03-21 11:06 51°9.604 2°39.169 2.7 322 10 101840 92
2002-03-21 11:07 51°9.607 2°39.162 1.6 332 10 101830 92
2002-03-21 11:08 51°9.609 2°39.156 2.2 313 10 101840 92
2002-03-21 11:09 51°9.612 2°39.149 2.9 298 10 101840 92
2002-03-21 11:10 51°9.615 2°39.142 1.9 331 10 101840 93
2002-03-21 11:11 51°9.616 2°39.136 2.3 315 10 101840 93
2002-03-21 11:12 51°9.617 2°39.129 2 323 10 101850 93
2002-03-21 11:13 51°9.619 2°39.123 1.6 319 10 101840 93
2002-03-21 11:14 51°9.62 2°39.117 1.4 326 10 101840 93
2002-03-21 11:15 51°9.62 2°39.11 3 319 10 101840 93
2002-03-21 11:16 51°9.651 2°39.084 9.4 281 10 101850 93
2002-03-21 11:17 51°9.739 2°38.831 14 239 10 101820 93
2002-03-21 11:18 51°9.751 2°38.468 14.3 245 10 101820 93
2002-03-21 11:19 51°9.777 2°38.109 15.2 245 10.1 101820 93
2002-03-21 11:20 51°9.807 2°37.725 15.9 246 10.1 101810 93
2002-03-21 11:21 51°9.831 2°37.352 18.6 244 10.1 101810 93
2002-03-21 11:22 51°9.854 2°36.978 18.1 246 10.2 101810 92
2002-03-21 11:23 51°9.879 2°36.606 19.1 246 10.2 101810 92
2002-03-21 11:24 51°9.901 2°36.233 18.4 248 10.1 101810 92
2002-03-21 11:25 51°9.926 2°35.859 18.2 247 10.1 101800 92
2002-03-21 11:26 51°9.93 2°35.546 13.6 232 10.1 101820 92
2002-03-21 11:27 51°9.874 2°35.437 11.1 174 10 101830 92
2002-03-21 11:28 51°9.8 2°35.43 10.4 151 9.9 101860 92
2002-03-21 11:29 51°9.763 2°35.421 10.7 163 9.8 101850 92
2002-03-21 11:30 51°9.711 2°35.39 12.5 200 9.8 101850 92
2002-03-21 11:31 51°9.656 2°35.304 12.1 135 9.8 101840 92
2002-03-21 11:32 51°9.627 2°35.23 10.8 229 9.7 101850 93
2002-03-21 11:33 51°9.61 2°35.183 12.3 228 9.8 101850 93
2002-03-21 11:34 51°9.599 2°35.153 13.7 239 9.7 101860 93
2002-03-21 11:35 51°9.593 2°35.133 10.9 260 9.8 101850 93
2002-03-21 11:36 51°9.601 2°35.091 12.3 284 9.7 101840 93
2002-03-21 11:37 51°9.624 2°35.033 13 285 9.7 101840 93
2002-03-21 11:38 51°9.647 2°34.975 11.4 291 9.7 101840 93
2002-03-21 11:39 51°9.667 2°34.924 11.7 284 9.7 101860 93
2002-03-21 11:40 51°9.685 2°34.878 11.5 284 9.7 101840 93
2002-03-21 11:41 51°9.701 2°34.831 11.3 281 9.6 101850 93
2002-03-21 11:42 51°9.713 2°34.787 13.2 274 9.6 101860 93
2002-03-21 11:43 51°9.72 2°34.745 12.2 257 9.6 101860 93
2002-03-21 11:44 51°9.719 2°34.702 12.3 231 9.6 101860 93
2002-03-21 11:45 51°9.702 2°34.658 11 205 9.6 101860 93
2002-03-21 11:46 51°9.666 2°34.624 11.7 171 9.6 101840 93
2002-03-21 11:47 51°9.622 2°34.604 9.6 177 9.5 101850 93
2002-03-21 11:48 51°9.583 2°34.58 9.4 183 9.5 101840 93
2002-03-21 11:49 51°9.554 2°34.554 10.8 195 9.5 101840 94
2002-03-21 11:50 51°9.529 2°34.534 9.5 186 9.5 101850 94
2002-03-21 11:51 51°9.504 2°34.519 10.5 179 9.5 101860 94
2002-03-21 11:52 51°9.48 2°34.505 11.5 176 9.5 101860 94
2002-03-21 11:53 51°9.46 2°34.495 11.1 168 9.5 101850 94
2002-03-21 11:54 51°9.445 2°34.491 13.5 159 9.5 101860 94
2002-03-21 11:55 51°9.431 2°34.489 12.3 155 9.5 101850 94
2002-03-21 11:56 51°9.414 2°34.485 13.7 167 9.5 101870 94
2002-03-21 11:57 51°9.355 2°34.374 15.2 253 9.5 101840 94
2002-03-21 11:58 51°9.443 2°34.303 3.4 350 9.5 101830 94
2002-03-21 11:59 51°9.599 2°34.455 1.5 342 9.5 101870 94
2002-03-21 12:00 51°9.768 2°34.66 1.3 340 9.5 101870 94
2002-03-21 12:01 51°9.939 2°34.857 7 343 9.4 101870 94
2002-03-21 12:02 51°10.106 2°35.061 6.8 356 9.5 101870 94
2002-03-21 12:03 51°10.275 2°35.266 6.2 354 9.5 101870 94
2002-03-21 12:04 51°10.442 2°35.47 1 348 9.5 101880 94
2002-03-21 12:05 51°10.609 2°35.672 7.2 360 9.4 101880 94
2002-03-21 12:06 51°10.778 2°35.876 4.3 343 9.4 101880 94
2002-03-21 12:07 51°10.946 2°36.08 4.1 345 9.4 101880 94
2002-03-21 12:08 51°11.115 2°36.285 5.5 348 9.4 101890 94
2002-03-21 12:09 51°11.285 2°36.488 1.7   9.3 101890 94
2002-03-21 12:10 51°11.453 2°36.695 6.9 354 9.3 101880 94
2002-03-21 12:11 51°11.62 2°36.893 1.9 318 9.3 101880 94
2002-03-21 12:12 51°11.787 2°37.099 5.7 327 9.3 101890 94
2002-03-21 12:13 51°11.956 2°37.309 6 355 9.3 101880 94
2002-03-21 12:14 51°12.125 2°37.499 2.8 2 9.3 101880 95
2002-03-21 12:15 51°12.303 2°37.672 3 325 9.3 101880 95
2002-03-21 12:16 51°12.499 2°37.804 2.2 315 9.3 101870 95
2002-03-21 12:17 51°12.687 2°37.953 2.2 316 9.3 101870 95
2002-03-21 12:18 51°12.877 2°38.1 3.7 318 9.2 101870 95
2002-03-21 12:19 51°13.066 2°38.238 2 341 9.2 101860 95
2002-03-21 12:20 51°13.263 2°38.385 1.6 339 9.2 101870 95
2002-03-21 12:21 51°13.45 2°38.537 2.9 309 9.2 101870 95
2002-03-21 12:22 51°13.641 2°38.681 2.2 325 9.2 101860 95
2002-03-21 12:23 51°13.834 2°38.824 2.3 325 9.1 101860 95
2002-03-21 12:24 51°14.036 2°38.934 5.9 291 9.2 101850 95
2002-03-21 12:25 51°14.218 2°38.846 15.7 280 9.1 101820 95
2002-03-21 12:26 51°14.312 2°38.53 16.3 269 9.2 101820 95
2002-03-21 12:27 51°14.426 2°38.227 16 266 9.2 101810 95
2002-03-21 12:28 51°14.537 2°37.921 16.6 271 9.1 101810 95
2002-03-21 12:29 51°14.657 2°37.623 15.4 271 9.2 101810 95
2002-03-21 12:30 51°14.752 2°37.352 15.7 264 9.1 101810 95
2002-03-21 12:31 51°14.758 2°37.276 10.2 244 9.1 101830 95
2002-03-21 12:32 51°14.757 2°37.276 11.1 267 9.1 101830 95
2002-03-21 12:33 51°14.754 2°37.286 11.1 290 9.1 101830 95
2002-03-21 12:34 51°14.747 2°37.298 6.2 307 9.1 101810 95
2002-03-21 12:35 51°14.768 2°37.302 6.8 351 9.1 101820 95
2002-03-21 12:36 51°14.828 2°37.496 3.8 85 9.1 101840 95
2002-03-21 12:37 51°14.846 2°37.825 3.5 100 9.1 101840 95
2002-03-21 12:38 51°14.861 2°38.169 4.8 104 9.1 101830 95
2002-03-21 12:39 51°14.876 2°38.511 4.1 111 9.1 101830 95
2002-03-21 12:40 51°14.888 2°38.861 5.3 109 9.1 101830 95
2002-03-21 12:41 51°14.902 2°39.207 4.9 98 9.1 101830 95
2002-03-21 12:42 51°14.908 2°39.556 5.1 113 9.1 101820 95
2002-03-21 12:43 51°14.915 2°39.904 4.6 112 9.1 101820 95
2002-03-21 12:44 51°14.933 2°40.251 3.5 99 9.1 101810 95
2002-03-21 12:45 51°14.952 2°40.602 3.3 96 9.1 101810 95
2002-03-21 12:46 51°14.969 2°40.959 5 117 9.1 101810 95
2002-03-21 12:47 51°14.974 2°41.317 5.1 117 9.1 101800 95
2002-03-21 12:48 51°14.977 2°41.67 4 104 9.1 101800 95
2002-03-21 12:49 51°14.984 2°42.021 3.9 120 9.2 101800 95
2002-03-21 12:50 51°14.984 2°42.371 4.4 107 9.2 101790 95
2002-03-21 12:51 51°14.986 2°42.723 3 103 9.2 101800 95
2002-03-21 12:52 51°14.991 2°43.074 4.9 113 9.2 101800 95
2002-03-21 12:53 51°14.994 2°43.426 2.9 113 9.2 101800 95
2002-03-21 12:54 51°14.998 2°43.774 3.3 125 9.2 101800 95
2002-03-21 12:55 51°15.001 2°44.119 3.7 111 9.2 101810 95
2002-03-21 12:56 51°15.006 2°44.477 4.1 92 9.2 101800 95
2002-03-21 12:57 51°15.008 2°44.824 3.7 117 9.2 101800 95
2002-03-21 12:58 51°15.01 2°45.168 2.1 108 9.3 101800 95
2002-03-21 12:59 51°15.015 2°45.508 3.1 116 9.2 101800 95
2002-03-21 13:00 51°15.016 2°45.865 3.9 105 9.3 101790 95
2002-03-21 13:01 51°15.023 2°46.211 1.9 109 9.3 101790 95
2002-03-21 13:02 51°15.028 2°46.56 2.5 92 9.3 101790 95
2002-03-21 13:03 51°15.032 2°46.911 2.7 104 9.3 101790 95
2002-03-21 13:04 51°15.036 2°47.262 3.6 112 9.3 101800 95
2002-03-21 13:05 51°15.038 2°47.619 2.3 106 9.3 101790 95
2002-03-21 13:06 51°15.046 2°47.979 2.2 84 9.3 101790 95
2002-03-21 13:07 51°15.051 2°48.333 3.8 92 9.3 101790 95
2002-03-21 13:08 51°15.054 2°48.682 3 123 9.3 101800 95
2002-03-21 13:09 51°15.043 2°49.034 3.7 108 9.3 101790 95
2002-03-21 13:10 51°15.035 2°49.386 3.9 130 9.3 101780 95
2002-03-21 13:11 51°15.027 2°49.737 2.9 124 9.3 101780 95
2002-03-21 13:12 51°15.019 2°50.09 3 119 9.3 101770 95
2002-03-21 13:13 51°15.011 2°50.445 3.1 132 9.3 101780 95
2002-03-21 13:14 51°15.003 2°50.793 3.6 111 9.3 101770 95
2002-03-21 13:15 51°14.983 2°51.146 4.1 129 9.3 101770 95
2002-03-21 13:16 51°14.963 2°51.498 3.9 118 9.3 101770 95
2002-03-21 13:17 51°14.944 2°51.847 3.8 133 9.3 101770 95
2002-03-21 13:18 51°14.914 2°52.198 4.4 131 9.3 101770 95
2002-03-21 13:19 51°14.882 2°52.55 4.5 129 9.3 101770 95
2002-03-21 13:20 51°14.85 2°52.901 4.4 126 9.3 101780 95
2002-03-21 13:21 51°14.819 2°53.255 5 120 9.4 101770 95
2002-03-21 13:22 51°14.773 2°53.603 6 143 9.4 101770 95
2002-03-21 13:23 51°14.702 2°53.945 5.4 130 9.4 101770 95
2002-03-21 13:24 51°14.628 2°54.279 7.1 136 9.4 101770 95
2002-03-21 13:25 51°14.545 2°54.586 6.9 140 9.4 101770 95
2002-03-21 13:26 51°14.447 2°54.876 7.4 148 9.4 101760 95
2002-03-21 13:27 51°14.326 2°55.138 3.8 109 9.5 101760 95
2002-03-21 13:28 51°14.19 2°55.352 6.1 174 9.5 101760 95
2002-03-21 13:29 51°14.092 2°55.429 4.4 190 9.6 101770 95
2002-03-21 13:30 51°14.023 2°55.482 4.6 181 9.7 101780 95
2002-03-21 13:31 51°13.963 2°55.533 6.2 182 9.8 101770 95
2002-03-21 13:32 51°13.908 2°55.575 2.4 127 9.9 101770 95
2002-03-21 13:33 51°13.862 2°55.612 3.3 174 10 101780 95
2002-03-21 13:34 51°13.817 2°55.651 7.4 185 10 101780 95
2002-03-21 13:35 51°13.771 2°55.699 3.2 198 10.1 101770 95
2002-03-21 13:36 51°13.731 2°55.764 3.2 86 10.2 101770 95
2002-03-21 13:37 51°13.704 2°55.824 4.1 99 10.3 101770 95
2002-03-21 13:38 51°13.691 2°55.888 5.8 78 10.2 101760 95
2002-03-21 13:39 51°13.688 2°55.901 6.1 95 10.3 101760 94